[[{"header":{"parameterUnit":"m.s-1","parameterCategory":1,"la1":30.2991,"la2":30.254,"lo1":-89.0895,"lo2":-89.0444,"dx":0.0017,"dy":0.0017,"nx":28,"ny":28,"refTime":"2022-11-15T09:00:00:Z","depth":0,"parameterNumber":2,"parameterNumberName":"U-component_of_WINDS"},"data":[0,0,0,0,0,0,0,0,0,0,0,0,0,0,0,0,0,0,0,0,0,0,0,0,0,0,0,0,0,0,0,0,0,0,0,0,0,0,0,0,0,0,0,0,0,0,0,0,0,0,0,0,0,0,0,0,0,0,-0.6328,-0.6329,0,-0.6416,-0.6417,-0.6418,-0.6424,-0.6423,-0.6422,-0.6421,-0.651,-0.6513,-0.6517,0,0,0,0,0,0,0,0,0,0,0,0,0,-0.6162,-0.6165,-0.6328,-0.6329,-0.633,-0.6416,-0.6417,-0.6418,-0.6424,-0.6423,-0.6422,-0.6421,-0.6509,-0.6513,-0.6517,0,0,0,0,0,0,0,0,0,0,0,0,0,-0.624,-0.6166,-0.6328,-0.6343,-0.6346,-0.6415,-0.6417,-0.6418,-0.6424,-0.6423,-0.6421,-0.642,-0.6508,-0.6513,-0.6517,-0.6577,0,0,-0.6533,-0.6535,0,0,0,0,0,0,0,0,-0.6236,-0.6247,-0.634,-0.6342,-0.6345,-0.6407,-0.6391,-0.6472,-0.6425,-0.6394,-0.6421,-0.6419,-0.6477,-0.6484,-0.6504,-0.6582,-0.6585,-0.6533,-0.6536,-0.6538,-0.6539,0,0,0,0,0,0,0,-0.6231,-0.6243,-0.6363,-0.6341,-0.6344,-0.6345,-0.6355,-0.6406,-0.6443,-0.6397,-0.6398,-0.6408,-0.6478,-0.6499,-0.6506,-0.6587,-0.6533,-0.6537,-0.654,-0.6542,-0.6715,-0.6717,0,0,0,0,0,0,-0.6222,-0.6238,-0.636,-0.6365,-0.6286,-0.6349,-0.636,-0.6389,-0.6442,-0.6449,-0.6409,-0.6408,-0.6492,-0.6501,-0.6509,-0.6582,-0.6538,-0.6543,-0.6545,-0.6713,-0.6715,-0.6717,0,0,0,0,0,0,-0.6219,-0.6233,-0.6356,-0.6302,-0.6318,-0.6354,-0.6386,-0.6391,-0.6413,-0.6452,-0.6458,-0.6424,-0.6491,-0.6503,-0.656,-0.6585,-0.6545,-0.6549,-0.6711,-0.6714,-0.6716,-0.6728,0,0,0,0,0,0,-0.6214,-0.6232,-0.6256,-0.6302,-0.6321,-0.6406,-0.6388,-0.6394,-0.6421,-0.6421,-0.6468,-0.6474,-0.6491,-0.6553,-0.6565,-0.6591,-0.6553,-0.6709,-0.6713,-0.6715,-0.6726,-0.6731,-0.6735,0,0,0,0,0,-0.6208,-0.6256,-0.6257,-0.6272,-0.6351,-0.6408,-0.6418,-0.6437,-0.6423,-0.6447,-0.6472,-0.6472,-0.658,-0.6558,-0.6572,-0.6601,-0.6708,-0.6712,-0.6715,-0.6724,-0.673,-0.6735,0,0,0,0,0,0,-0.6212,-0.6263,-0.6264,-0.6329,-0.6364,-0.6409,-0.644,-0.6443,-0.6482,-0.648,-0.6501,-0.6511,-0.6568,-0.659,-0.6565,-0.666,-0.6642,-0.6649,-0.6644,-0.665,-0.6655,-0.6649,-0.6557,0,0,0,0,0,-0.622,-0.6263,-0.6304,-0.6357,-0.6375,-0.6404,-0.6429,-0.644,-0.6477,-0.6492,-0.6521,-0.6556,-0.6598,-0.6625,-0.6666,-0.6728,-0.6738,-0.6754,-0.6759,-0.6763,-0.6768,-0.6801,-0.6808,-0.6729,-0.6729,-0.6729,0,0,-0.6238,-0.6271,-0.6297,-0.6359,-0.6387,-0.6429,-0.6417,-0.6462,-0.6493,-0.6499,-0.6555,-0.6577,-0.6618,-0.6677,-0.6705,-0.6697,-0.6792,-0.6767,-0.677,-0.6774,-0.6806,-0.6813,-0.682,-0.6732,-0.6731,-0.6731,0,0,-0.6293,-0.6322,-0.6369,-0.6397,-0.644,-0.6459,-0.6469,-0.6513,-0.6528,-0.6584,-0.6589,-0.6625,-0.6697,-0.6725,-0.6749,-0.6811,-0.6812,-0.6823,-0.6848,-0.688,-0.6886,-0.6891,-0.6912,-0.692,-0.6828,-0.6828,-0.6828,0,-0.631,-0.6374,-0.6392,-0.6438,-0.6464,-0.647,-0.6516,-0.6543,-0.6597,-0.6614,-0.6605,-0.6693,-0.6721,-0.6787,-0.6801,-0.6821,-0.6833,-0.6819,-0.6883,-0.6889,-0.6895,-0.6915,-0.6923,-0.6829,-0.6829,-0.6829,-0.6829,0,-0.6392,-0.6437,-0.6469,-0.652,-0.655,-0.6596,-0.662,-0.6647,-0.6655,-0.6674,-0.673,-0.6763,-0.6809,-0.6826,-0.6834,-0.6892,-0.6885,-0.6879,-0.6862,-0.6903,-0.6922,-0.693,-0.6831,-0.6831,-0.683,-0.683,0,0,-0.6454,-0.6513,-0.6525,-0.6547,-0.6593,-0.6628,-0.6672,-0.6717,-0.674,-0.6776,-0.6814,-0.6873,-0.6866,-0.6893,-0.6904,-0.6932,-0.6977,-0.6922,-0.6923,-0.6931,-0.7041,-0.7045,-0.7054,-0.6977,-0.6979,-0.698,-0.7037,0,-0.6513,-0.6594,-0.661,-0.668,-0.672,-0.6725,-0.6763,-0.6795,-0.6813,-0.6849,-0.6869,-0.691,-0.69,-0.6916,-0.6943,-0.6966,-0.6999,-0.6962,-0.7012,-0.7013,-0.7002,-0.7065,-0.707,-0.7122,-0.7045,-0.7046,-0.7047,0,-0.6594,-0.6632,-0.6705,-0.6744,-0.6761,-0.6796,-0.6838,-0.6872,-0.6907,-0.6918,-0.6947,-0.6954,-0.6999,-0.6978,-0.704,-0.7013,-0.7034,-0.7048,-0.705,-0.7056,-0.7033,-0.7072,-0.714,-0.7148,-0.706,-0.7059,-0.7058,0,-0.6631,-0.67,-0.6752,-0.6771,-0.6818,-0.6842,-0.6862,-0.6896,-0.6921,-0.6957,-0.6973,-0.7014,-0.7036,-0.7066,-0.7083,-0.7067,-0.7143,-0.7124,-0.7152,-0.7152,-0.7169,-0.7168,-0.7241,-0.7182,-0.7182,-0.7182,-0.7182,0,-0.6696,-0.6741,-0.6769,-0.6802,-0.6851,-0.6868,-0.6916,-0.6935,-0.6965,-0.7,-0.7006,-0.7038,-0.7059,-0.7094,-0.7107,-0.7155,-0.7165,-0.7174,-0.7177,-0.7174,-0.7173,-0.7189,-0.7185,-0.7184,-0.7183,-0.7183,-0.7183,0,-0.6747,-0.6768,-0.6825,-0.6864,-0.6874,-0.6909,-0.6941,-0.6972,-0.6989,-0.7033,-0.7044,-0.7071,-0.7112,-0.7132,-0.7183,-0.7192,-0.7246,-0.7247,-0.7234,-0.7235,-0.7262,-0.7259,-0.7349,-0.7361,-0.7294,-0.7294,-0.7295,0,-0.6787,-0.6822,-0.6863,-0.6887,-0.6908,-0.6947,-0.6972,-0.6989,-0.7015,-0.7056,-0.7081,-0.7122,-0.7157,-0.7222,-0.7245,-0.7283,-0.7285,-0.7313,-0.7291,-0.7286,-0.7285,-0.7282,-0.7285,-0.7318,-0.7318,-0.7319,-0.7319,0,-0.6857,-0.6864,-0.6901,-0.6941,-0.6971,-0.7003,-0.7035,-0.7053,-0.7075,-0.7103,-0.7145,-0.7172,-0.7223,-0.7263,-0.7303,-0.7322,-0.7324,-0.7326,-0.7334,-0.7332,-0.7323,-0.7327,-0.7245,-0.7324,-0.7324,-0.7323,-0.7323,-0.7323,-0.6903,-0.6933,-0.6967,-0.7007,-0.7032,-0.706,-0.709,-0.711,-0.7146,-0.7189,-0.7196,-0.724,-0.7272,-0.7325,-0.7345,-0.7379,-0.7373,-0.7385,-0.7388,-0.7391,-0.7392,-0.7317,-0.7387,-0.7386,-0.7386,-0.7386,-0.7386,0,-0.6972,-0.6993,-0.703,-0.7073,-0.7104,-0.7102,-0.7136,-0.7162,-0.7201,-0.723,-0.7263,-0.731,-0.7348,-0.7373,-0.7412,-0.7434,-0.7435,-0.7443,-0.7442,-0.7446,-0.7397,-0.7385,-0.7441,-0.7441,-0.7441,-0.7441,-0.7441,-0.7441,-0.7012,-0.7062,-0.7073,-0.7135,-0.7155,-0.7199,-0.7218,-0.7243,-0.7267,-0.7319,-0.7351,-0.7367,-0.7394,-0.7434,-0.7468,-0.7474,-0.7488,-0.7496,-0.7502,-0.7455,-0.745,-0.7444,-0.7434,-0.7499,-0.7499,-0.7549,-0.7549,-0.7549]},{"header":{"parameterUnit":"m.s-1","parameterCategory":1,"la1":30.2991,"la2":30.254,"lo1":-89.0895,"lo2":-89.0444,"dx":0.0017,"dy":0.0017,"nx":28,"ny":28,"refTime":"2022-11-15T09:00:00:Z","depth":0,"parameterNumber":3,"parameterNumberName":"V-component_of_WINDS"},"data":[0,0,0,0,0,0,0,0,0,0,0,0,0,0,0,0,0,0,0,0,0,0,0,0,0,0,0,0,0,0,0,0,0,0,0,0,0,0,0,0,0,0,0,0,0,0,0,0,0,0,0,0,0,0,0,0,0,0,-7.0045,-7.0047,0,-7.0188,-7.0189,-7.0191,-7.0125,-7.0121,-7.0118,-7.0114,-7.0255,-7.0261,-7.0268,0,0,0,0,0,0,0,0,0,0,0,0,0,-6.9709,-6.9716,-7.0045,-7.0047,-7.0049,-7.0187,-7.0189,-7.0191,-7.0125,-7.0121,-7.0117,-7.0113,-7.0252,-7.0261,-7.0269,0,0,0,0,0,0,0,0,0,0,0,0,0,-6.9853,-6.9718,-7.0045,-7.0033,-7.0033,-7.0187,-7.0189,-7.0192,-7.0126,-7.0121,-7.0116,-7.0111,-7.0249,-7.026,-7.027,-7.0443,0,0,-7.0303,-7.0307,0,0,0,0,0,0,0,0,-6.9845,-6.9866,-7.0033,-7.0034,-7.0035,-7.0133,-7.0122,-7.0276,-7.0128,-7.0091,-7.0114,-7.0108,-7.0218,-7.0231,-7.0269,-7.0449,-7.0455,-7.0303,-7.031,-7.0314,-7.0317,0,0,0,0,0,0,0,-6.9835,-6.9859,-7.0101,-7.0035,-7.0036,-7.0018,-7.0032,-7.0151,-7.0182,-7.0094,-7.0089,-7.0107,-7.0217,-7.0259,-7.0272,-7.0457,-7.0303,-7.0313,-7.0319,-7.0323,-7.0782,-7.0787,0,0,0,0,0,0,-6.9827,-6.9851,-7.0097,-7.0106,-6.9925,-7.0028,-7.0044,-7.0107,-7.0181,-7.0187,-7.0112,-7.0104,-7.0244,-7.026,-7.0277,-7.0482,-7.0314,-7.0324,-7.033,-7.0776,-7.0783,-7.0789,0,0,0,0,0,0,-6.982,-6.9849,-7.0091,-6.9977,-7.0007,-7.004,-7.011,-7.0112,-7.0154,-7.0195,-7.0199,-7.0149,-7.024,-7.0262,-7.0401,-7.0486,-7.0329,-7.0339,-7.0769,-7.0778,-7.0786,-7.0894,0,0,0,0,0,0,-6.981,-6.9847,-6.9915,-6.998,-7.0013,-7.0216,-7.0115,-7.0119,-7.0173,-7.0164,-7.0231,-7.0237,-7.0238,-7.0386,-7.0412,-7.0497,-7.0347,-7.0762,-7.0773,-7.0783,-7.0883,-7.0905,-7.0925,0,0,0,0,0,-6.9799,-6.9939,-6.9919,-6.9949,-7.0099,-7.0221,-7.024,-7.024,-7.018,-7.0247,-7.0273,-7.0235,-7.0472,-7.0401,-7.0429,-7.0519,-7.0756,-7.077,-7.0783,-7.0874,-7.0901,-7.0924,0,0,0,0,0,0,-6.9883,-6.9948,-6.9926,-7.0092,-7.0152,-7.021,-7.0295,-7.0269,-7.0346,-7.0334,-7.0328,-7.0343,-7.0488,-7.0517,-7.0437,-7.0688,-7.0605,-7.0624,-7.0664,-7.069,-7.0711,-7.0701,-7.0356,0,0,0,0,0,-6.9921,-7.0017,-7.0067,-7.0209,-7.024,-7.0263,-7.0316,-7.031,-7.0371,-7.0396,-7.0431,-7.049,-7.0577,-7.0635,-7.0718,-7.0886,-7.0898,-7.0962,-7.0982,-7.0999,-7.1016,-7.1105,-7.1133,-7.0832,-7.0832,-7.0832,0,0,-7.0001,-7.0048,-7.0109,-7.0227,-7.0273,-7.037,-7.0285,-7.0391,-7.0462,-7.0411,-7.0546,-7.0573,-7.0638,-7.0792,-7.0862,-7.0821,-7.1101,-7.1016,-7.1029,-7.1037,-7.1121,-7.1149,-7.1175,-7.0841,-7.084,-7.0838,0,0,-7.0195,-7.0242,-7.0364,-7.0411,-7.0481,-7.0495,-7.0524,-7.0586,-7.0603,-7.0737,-7.07,-7.0783,-7.0934,-7.0982,-7.1025,-7.1234,-7.1201,-7.1261,-7.1369,-7.1455,-7.1479,-7.15,-7.1572,-7.1599,-7.1277,-7.1278,-7.1278,0,-7.0285,-7.0433,-7.043,-7.0539,-7.0591,-7.0549,-7.0671,-7.0716,-7.081,-7.0845,-7.0798,-7.0986,-7.1027,-7.119,-7.1241,-7.1278,-7.1309,-7.1254,-7.1476,-7.1497,-7.1516,-7.1585,-7.1613,-7.1284,-7.1283,-7.1283,-7.1282,0,-7.0538,-7.064,-7.073,-7.0822,-7.0884,-7.0999,-7.1011,-7.1073,-7.1061,-7.1078,-7.1214,-7.1261,-7.1351,-7.1389,-7.1378,-7.155,-7.1522,-7.1476,-7.1392,-7.1552,-7.1617,-7.1643,-7.1294,-7.1292,-7.129,-7.1288,0,0,-7.0793,-7.088,-7.0913,-7.0953,-7.1026,-7.1103,-7.1214,-7.1304,-7.1357,-7.1421,-7.1513,-7.164,-7.1597,-7.1646,-7.164,-7.1715,-7.1875,-7.1659,-7.166,-7.1697,-7.2065,-7.2099,-7.213,-7.1853,-7.1858,-7.1862,-7.2059,0,-7.0992,-7.119,-7.1189,-7.1371,-7.1463,-7.1423,-7.1519,-7.1573,-7.1591,-7.167,-7.1688,-7.1779,-7.1715,-7.1745,-7.1818,-7.184,-7.1949,-7.1826,-7.1936,-7.194,-7.1922,-7.2165,-7.2202,-7.2386,-7.2084,-7.2089,-7.2092,0,-7.1252,-7.1326,-7.1517,-7.1574,-7.1612,-7.17,-7.178,-7.1857,-7.1915,-7.1922,-7.1977,-7.1957,-7.2067,-7.1979,-7.2129,-7.2045,-7.2089,-7.2107,-7.2114,-7.2124,-7.2026,-7.2181,-7.2445,-7.2472,-7.2132,-7.2129,-7.2126,0,-7.1418,-7.1564,-7.1697,-7.1732,-7.1802,-7.1864,-7.1895,-7.1948,-7.2001,-7.207,-7.2104,-7.2184,-7.2229,-7.229,-7.2291,-7.2227,-7.2442,-7.2354,-7.2449,-7.2449,-7.2497,-7.2494,-7.2771,-7.2526,-7.2525,-7.2525,-7.2524,0,-7.1641,-7.1759,-7.1772,-7.1854,-7.1984,-7.1979,-7.2107,-7.2132,-7.2179,-7.2263,-7.2232,-7.231,-7.2308,-7.2386,-7.2388,-7.251,-7.253,-7.2538,-7.2537,-7.2541,-7.254,-7.257,-7.2557,-7.2532,-7.253,-7.2529,-7.2528,0,-7.1848,-7.1862,-7.2004,-7.2057,-7.2073,-7.2167,-7.2211,-7.2287,-7.2301,-7.2407,-7.2432,-7.2453,-7.2544,-7.2551,-7.2656,-7.2657,-7.2805,-7.279,-7.2786,-7.2784,-7.2877,-7.2868,-7.3184,-7.3224,-7.2953,-7.2955,-7.2958,0,-7.199,-7.208,-7.2143,-7.2197,-7.2233,-7.2321,-7.2374,-7.2372,-7.2428,-7.25,-7.2566,-7.2654,-7.2725,-7.2871,-7.2895,-7.2974,-7.296,-7.3065,-7.2972,-7.2972,-7.2961,-7.2955,-7.2963,-7.3083,-7.3086,-7.3089,-7.3091,0,-7.224,-7.2241,-7.2321,-7.2402,-7.2467,-7.2531,-7.259,-7.2636,-7.264,-7.2704,-7.2798,-7.2852,-7.2959,-7.3046,-7.3123,-7.3151,-7.3122,-7.312,-7.3146,-7.3151,-7.3145,-7.3148,-7.2835,-7.3113,-7.3111,-7.3109,-7.3108,-7.3107,-7.2418,-7.2495,-7.2551,-7.264,-7.2684,-7.2739,-7.2813,-7.2836,-7.2914,-7.3002,-7.2994,-7.3097,-7.3148,-7.3249,-7.3284,-7.3361,-7.3326,-7.3364,-7.3373,-7.3383,-7.3392,-7.3132,-7.3375,-7.3375,-7.3374,-7.3374,-7.3373,0,-7.2665,-7.2699,-7.278,-7.2864,-7.2933,-7.2899,-7.2962,-7.3021,-7.3113,-7.3164,-7.3234,-7.3339,-7.3422,-7.3451,-7.3531,-7.3588,-7.3576,-7.3609,-7.3604,-7.3611,-7.342,-7.3389,-7.3617,-7.3617,-7.3617,-7.3617,-7.3617,-7.3617,-7.2802,-7.293,-7.2938,-7.3086,-7.3118,-7.3219,-7.3258,-7.3307,-7.3348,-7.3468,-7.3537,-7.3555,-7.3597,-7.3679,-7.3753,-7.3759,-7.3789,-7.3828,-7.3828,-7.3649,-7.3625,-7.3602,-7.3573,-7.3835,-7.3835,-7.4013,-7.4014,-7.4016]}]]